Flag for India Weather past 2 weeks in Gandhinagar, Gujarat, India

Now
90 °F

Scattered clouds.


Feels Like: 100 °F
Forecast: 82 / 98 °F
Wind: 9 mph from Northwest

Location: Ahmadabad Airport

Current Time: Aug 22, 2014 at 11:28:33 AM

Latest Report: Aug 22, 2014 at 10:40 AM


Visibility: 4 mi

Pressure: 29.71 "Hg

Humidity: 63%

Dew point: 75 °F

Location of GandhinagarLocation

Historic Weather in Gandhinagar — Graph

°F

Gandhinagar temperature yesterday

Maximum temperature yesterday: 97 °F (at 2:10 PM)
Minimum temperature yesterday: 82 °F (at 5:40 AM)
Average temperature yesterday: 90 °F

Past Weeks' High & Low Weather Summary

 TemperatureHumidityPressure
High99 °F (Aug 20, 2:40 PM)100% (Aug 15, 7:40 AM)29.86 "Hg (Aug 15, 7:40 AM)
Low77 °F (Aug 15, 7:40 AM)50% (Aug 20, 3:40 PM)29.50 "Hg (Aug 7, 3:40 PM)
Average86 °F75%29.68 "Hg
* Reported Aug 7 9:40 AM — Aug 22 10:10 AM, Gandhinagar, Weather by CustomWeather, © 2014

Note: Actual official high and low records may vary slightly from our data, if they occured in-between our weather recording intervals... More about our weather records

Advertising

Gandhinagar weather history for previous 24 hours

 ConditionsComfort  
Time TempWeatherWind HumidityBarometerVisibility
10:10 AM
Aug 22
88 °FScattered clouds.8 mph66%29.74 "Hg4 mi
9:40 AM88 °FScattered clouds.9 mph66%29.74 "Hg4 mi
9:10 AM86 °FScattered clouds.7 mph70%29.71 "Hg4 mi
8:10 AM84 °FHaze.7 mph70%29.71 "Hg2 mi
7:40 AM84 °FHaze.7 mph70%29.68 "Hg2 mi
7:10 AM82 °FHaze.7 mph74%29.68 "Hg2 mi
6:40 AM82 °FHaze.7 mph70%29.68 "Hg2 mi
6:10 AM82 °FHaze.7 mph70%29.65 "Hg2 mi
5:40 AM82 °FHaze.7 mph70%29.65 "Hg2 mi
5:10 AM84 °FHaze.7 mph66%29.65 "Hg2 mi
4:40 AM84 °FHaze.5 mph66%29.62 "Hg2 mi
4:10 AM84 °FHaze.5 mph66%29.62 "Hg2 mi
3:40 AM86 °FHaze.5 mph66%29.62 "Hg2 mi
3:10 AM86 °FHaze.2 mph66%29.62 "Hg2 mi
2:10 AM86 °FHaze.5 mph66%29.62 "Hg2 mi
1:40 AM88 °FHaze.6 mph62%29.65 "Hg2 mi
1:10 AM88 °FHaze.6 mph62%29.65 "Hg2 mi
12:10 AM88 °FHaze.5 mph66%29.65 "Hg2 mi
11:40 PM
Aug 21
88 °FHaze.6 mph66%29.65 "Hg2 mi
11:10 PM88 °FHaze.5 mph70%29.65 "Hg2 mi
10:40 PM88 °FHaze.5 mph70%29.65 "Hg2 mi
10:10 PM88 °FHaze.5 mph70%29.65 "Hg2 mi
9:40 PM88 °FHaze.6 mph70%29.65 "Hg2 mi
9:10 PM90 °FClear.5 mph67%29.65 "Hg2 mi
8:40 PM90 °FClear.5 mph67%29.65 "Hg2 mi
8:10 PM90 °FClear.5 mph67%29.62 "Hg2 mi
7:40 PM91 °FClear.5 mph63%29.62 "Hg2 mi
6:40 PM95 °FPassing clouds.5 mph56%29.62 "Hg4 mi
5:40 PM97 °FPassing clouds.5 mph53%29.59 "Hg4 mi
5:10 PM97 °FPassing clouds.6 mph50%29.59 "Hg4 mi
4:40 PM97 °FPassing clouds.6 mph50%29.59 "Hg4 mi
4:10 PM97 °FPassing clouds.6 mph56%29.62 "Hg4 mi
3:40 PM97 °FPassing clouds.6 mph53%29.62 "Hg4 mi
3:10 PM97 °FPassing clouds.6 mph60%29.65 "Hg4 mi
2:40 PM97 °FPassing clouds.6 mph53%29.65 "Hg4 mi
2:10 PM97 °FPassing clouds.5 mph53%29.65 "Hg4 mi
1:40 PM95 °FPassing clouds.5 mph60%29.68 "Hg4 mi
1:10 PM95 °FPassing clouds.5 mph60%29.68 "Hg3 mi
12:40 PM93 °FPassing clouds.6 mph63%29.71 "Hg3 mi
12:10 PM93 °FPassing clouds.5 mph59%29.74 "Hg3 mi
11:40 AM93 °FPassing clouds.5 mph59%29.74 "Hg3 mi
11:10 AM91 °FPassing clouds.7 mph59%29.74 "Hg3 mi
Weather by CustomWeather, © 2014

See weather overviewHow to use our weather pages